When you browse on this site, cookies collect data to enhance your experience and personalize the content and advertising you see.
Visit our Privacy Policy to learn more. By continuing to use the site, you agree to this use of cookies and data.
  • en France
  • Liste des pays
  • À 7 jours
  • Température de l'eau
  • Carte satellitaire
  • Carte météo
  • Widgets météo
  • user-avatar
    Se connecter

    Météo par heure à Bulolo

    Ce jour, 22 Juillet, Lundi

    Heure Température Précipitation Vent Pression Humidité
    00:00 +18°C° 0 mm 0 m/s 663 mmHg 97%
    01:00 +17°C° 0 mm 0 m/s 662 mmHg 97%
    02:00 +17°C° 0 mm 0 m/s 662 mmHg 97%
    03:00 +17°C° 0 mm 0 m/s 662 mmHg 97%
    04:00 +17°C° 0 mm 0 m/s 662 mmHg 96%
    05:00 +17°C° 0 mm 0 m/s 662 mmHg 96%
    06:00 +17°C° 0 mm 0 m/s 662 mmHg 96%
    07:00 +17°C° 0 mm 0 m/s 662 mmHg 95%
    08:00 +19°C° 0 mm 0 m/s 663 mmHg 89%
    09:00 +21°C° 0 mm 0 m/s 664 mmHg 82%
    10:00 +23°C° 0 mm 0 m/s 664 mmHg 76%
    11:00 +23°C° 0.9 mm 0 m/s 664 mmHg 77%
    12:00 +24°C° 0.9 mm 0 m/s 664 mmHg 79%
    13:00 +26°C° 0.9 mm 1 m/s 663 mmHg 81%
    14:00 +25°C° 2.1 mm 1 m/s 663 mmHg 84%
    15:00 +25°C° 2.1 mm 1 m/s 662 mmHg 87%
    16:00 +24°C° 2.1 mm 1 m/s 662 mmHg 90%
    17:00 +23°C° 1.1 mm 1 m/s 662 mmHg 92%
    18:00 +22°C° 1.1 mm 1 m/s 662 mmHg 95%
    19:00 +21°C° 1.1 mm 1 m/s 662 mmHg 98%
    20:00 +21°C° 1 mm 1 m/s 663 mmHg 98%
    21:00 +21°C° 1 mm 1 m/s 663 mmHg 98%
    22:00 +19°C° 1 mm 0 m/s 663 mmHg 98%
    23:00 +18°C° 0.3 mm 0 m/s 663 mmHg 98%

    Demain, 23 Juillet, Mardi

    Heure Température Précipitation Vent Pression Humidité
    00:00 +18°C° 0.3 mm 0 m/s 662 mmHg 98%
    01:00 +18°C° 0.3 mm 0 m/s 662 mmHg 98%
    02:00 +18°C° 3.2 mm 0 m/s 662 mmHg 98%
    03:00 +18°C° 3.2 mm 0 m/s 662 mmHg 99%
    04:00 +20°C° 3.2 mm 1 m/s 662 mmHg 99%
    05:00 +18°C° 6.6 mm 0 m/s 662 mmHg 99%
    06:00 +18°C° 6.6 mm 0 m/s 663 mmHg 99%
    07:00 +18°C° 6.6 mm 0 m/s 663 mmHg 99%
    08:00 +20°C° 4.1 mm 1 m/s 664 mmHg 98%
    09:00 +20°C° 4.1 mm 1 m/s 664 mmHg 98%
    10:00 +20°C° 4.1 mm 1 m/s 664 mmHg 98%
    11:00 +20°C° 4 mm 1 m/s 664 mmHg 98%
    12:00 +20°C° 4 mm 1 m/s 663 mmHg 98%
    13:00 +20°C° 4 mm 1 m/s 663 mmHg 98%
    14:00 +19°C° 0.6 mm 0 m/s 663 mmHg 95%
    15:00 +19°C° 0.6 mm 0 m/s 662 mmHg 93%
    16:00 +20°C° 0.6 mm 0 m/s 662 mmHg 91%
    17:00 +19°C° 0.2 mm 0 m/s 662 mmHg 93%
    18:00 +19°C° 0.2 mm 0 m/s 663 mmHg 96%
    19:00 +20°C° 0.2 mm 1 m/s 663 mmHg 98%
    20:00 +18°C° 0 mm 0 m/s 663 mmHg 98%
    21:00 +18°C° 0 mm 0 m/s 664 mmHg 98%
    22:00 +18°C° 0 mm 0 m/s 664 mmHg 98%
    23:00 +18°C° 0 mm 0 m/s 664 mmHg 98%

    Après-demain, 24 Juillet, Mercredi

    Heure Température Précipitation Vent Pression Humidité
    00:00 +18°C° 0 mm 0 m/s 664 mmHg 98%
    01:00 +17°C° 0 mm 0 m/s 663 mmHg 98%
    02:00 +17°C° 0 mm 0 m/s 663 mmHg 98%
    03:00 +17°C° 0 mm 0 m/s 663 mmHg 98%
    04:00 +17°C° 0 mm 0 m/s 663 mmHg 98%
    05:00 +17°C° 0.5 mm 0 m/s 663 mmHg 98%
    06:00 +18°C° 0.5 mm 0 m/s 663 mmHg 98%
    07:00 +18°C° 0.5 mm 0 m/s 664 mmHg 98%
    08:00 +18°C° 0.2 mm 0 m/s 664 mmHg 97%
    09:00 +20°C° 0.2 mm 1 m/s 664 mmHg 96%
    10:00 +21°C° 0.2 mm 1 m/s 665 mmHg 96%
    11:00 +22°C° 0.2 mm 1 m/s 665 mmHg 90%
    12:00 +24°C° 0.2 mm 1 m/s 664 mmHg 84%
    13:00 +25°C° 0.2 mm 1 m/s 664 mmHg 79%
    14:00 +24°C° 0.7 mm 1 m/s 664 mmHg 83%
    15:00 +24°C° 0.7 mm 1 m/s 663 mmHg 87%
    16:00 +23°C° 0.7 mm 1 m/s 663 mmHg 92%
    17:00 +22°C° 0.4 mm 1 m/s 663 mmHg 94%
    18:00 +21°C° 0.4 mm 1 m/s 663 mmHg 96%
    19:00 +19°C° 0.4 mm 0 m/s 663 mmHg 98%
    20:00 +18°C° 0.1 mm 0 m/s 664 mmHg 98%
    21:00 +20°C° 0.1 mm 1 m/s 664 mmHg 98%
    22:00 +20°C° 0.1 mm 1 m/s 665 mmHg 98%
    23:00 +18°C° 0 mm 0 m/s 664 mmHg 98%

    25 Juillet, Jeudi

    Heure Température Précipitation Vent Pression Humidité
    00:00 +17°C° 0 mm 0 m/s 664 mmHg 98%
    01:00 +17°C° 0 mm 0 m/s 663 mmHg 98%
    02:00 +17°C° 0 mm 0 m/s 663 mmHg 98%
    03:00 +17°C° 0 mm 0 m/s 663 mmHg 97%
    04:00 +16°C° 0 mm 0 m/s 662 mmHg 97%
    05:00 +16°C° 0 mm 0 m/s 663 mmHg 97%
    06:00 +16°C° 0 mm 0 m/s 663 mmHg 97%
    07:00 +17°C° 0 mm 0 m/s 663 mmHg 96%
    08:00 +18°C° 0 mm 0 m/s 664 mmHg 91%
    09:00 +22°C° 0 mm 1 m/s 665 mmHg 86%
    10:00 +24°C° 0 mm 1 m/s 665 mmHg 81%
    11:00 +24°C° 0.2 mm 1 m/s 665 mmHg 79%
    12:00 +25°C° 0.2 mm 1 m/s 665 mmHg 78%
    13:00 +25°C° 0.2 mm 1 m/s 664 mmHg 77%
    14:00 +25°C° 0.5 mm 1 m/s 664 mmHg 80%
    15:00 +24°C° 0.5 mm 1 m/s 663 mmHg 84%
    16:00 +23°C° 0.5 mm 1 m/s 663 mmHg 88%
    17:00 +22°C° 0.5 mm 1 m/s 663 mmHg 91%
    18:00 +21°C° 0.5 mm 1 m/s 663 mmHg 95%
    19:00 +20°C° 0.5 mm 1 m/s 663 mmHg 98%
    20:00 +20°C° 0.8 mm 1 m/s 664 mmHg 98%
    21:00 +18°C° 0.8 mm 0 m/s 664 mmHg 98%
    22:00 +18°C° 0.8 mm 0 m/s 665 mmHg 99%
    23:00 +18°C° 0.4 mm 0 m/s 664 mmHg 99%

    26 Juillet, Vendredi

    Heure Température Précipitation Vent Pression Humidité
    00:00 +18°C° 0.4 mm 0 m/s 664 mmHg 98%
    01:00 +18°C° 0.4 mm 0 m/s 663 mmHg 98%
    02:00 +18°C° 0.1 mm 0 m/s 663 mmHg 98%
    03:00 +17°C° 0.1 mm 0 m/s 663 mmHg 98%
    04:00 +17°C° 0.1 mm 0 m/s 662 mmHg 97%
    05:00 +17°C° 0 mm 0 m/s 663 mmHg 97%
    06:00 +18°C° 0 mm 0 m/s 663 mmHg 97%
    07:00 +18°C° 0 mm 0 m/s 663 mmHg 96%
    08:00 +19°C° 0 mm 0 m/s 664 mmHg 91%
    09:00 +20°C° 0 mm 0 m/s 664 mmHg 86%
    10:00 +22°C° 0 mm 0 m/s 665 mmHg 82%
    11:00 +23°C° 0.1 mm 0 m/s 664 mmHg 78%
    12:00 +26°C° 0.1 mm 1 m/s 664 mmHg 74%
    13:00 +26°C° 0.1 mm 1 m/s 664 mmHg 70%
    14:00 +26°C° 0.3 mm 1 m/s 663 mmHg 75%
    15:00 +25°C° 0.3 mm 1 m/s 663 mmHg 80%
    16:00 +24°C° 0.3 mm 1 m/s 662 mmHg 85%
    17:00 +23°C° 0.3 mm 1 m/s 663 mmHg 89%
    18:00 +22°C° 0.3 mm 1 m/s 663 mmHg 93%
    19:00 +21°C° 0.3 mm 1 m/s 663 mmHg 97%
    20:00 +18°C° 0.2 mm 0 m/s 664 mmHg 97%
    21:00 +18°C° 0.2 mm 0 m/s 664 mmHg 97%
    22:00 +18°C° 0.2 mm 0 m/s 664 mmHg 98%
    23:00 +18°C° 0.1 mm 0 m/s 664 mmHg 98%

    27 Juillet, Samedi

    Heure Température Précipitation Vent Pression Humidité
    00:00 +18°C° 0.1 mm 0 m/s 664 mmHg 98%
    01:00 +18°C° 0.1 mm 0 m/s 663 mmHg 98%
    02:00 +18°C° 0 mm 0 m/s 663 mmHg 97%
    03:00 +18°C° 0 mm 0 m/s 663 mmHg 97%
    04:00 +17°C° 0 mm 0 m/s 663 mmHg 97%
    05:00 +17°C° 0.1 mm 0 m/s 663 mmHg 97%
    06:00 +17°C° 0.1 mm 0 m/s 663 mmHg 96%
    07:00 +18°C° 0.1 mm 0 m/s 664 mmHg 96%
    08:00 +18°C° 0.1 mm 0 m/s 664 mmHg 94%
    09:00 +19°C° 0.1 mm 0 m/s 664 mmHg 92%
    10:00 +20°C° 0.1 mm 0 m/s 665 mmHg 89%
    11:00 +20°C° 0.4 mm 0 m/s 664 mmHg 87%
    12:00 +23°C° 0.4 mm 1 m/s 664 mmHg 85%
    13:00 +23°C° 0.4 mm 1 m/s 664 mmHg 84%
    14:00 +23°C° 0.4 mm 1 m/s 663 mmHg 86%
    15:00 +22°C° 0.4 mm 1 m/s 663 mmHg 89%
    16:00 +22°C° 0.4 mm 1 m/s 662 mmHg 91%
    17:00 +19°C° 0.3 mm 0 m/s 663 mmHg 93%
    18:00 +19°C° 0.3 mm 0 m/s 663 mmHg 96%
    19:00 +18°C° 0.3 mm 0 m/s 664 mmHg 98%
    20:00 +18°C° 0 mm 0 m/s 664 mmHg 98%
    21:00 +18°C° 0 mm 0 m/s 664 mmHg 98%
    22:00 +17°C° 0 mm 0 m/s 664 mmHg 98%
    23:00 +17°C° 0 mm 0 m/s 664 mmHg 98%
    Voir plus